| time (UTC) | temp C | wind direction | speed KPH | gust KPH | rain 1hr cm | rain 24hr cm | rain mn cm | humidity % | barometer mb |
| 20260504212630 | 12 | 208 | 19.3 | 27.4 | 0.00 | 0.00 | 0.00 | 84 | 1011.2 |
| 20260504212127 | 12 | 191 | 16.1 | 33.8 | 0.00 | 0.00 | 0.00 | 83 | 1011.2 |
| 20260504211625 | 13 | 209 | 17.7 | 25.7 | 0.00 | 0.00 | 0.00 | 83 | 1011.2 |
| 20260504211121 | 13 | 182 | 17.7 | 35.4 | 0.00 | 0.00 | 0.00 | 83 | 1011.2 |
| 20260504210619 | 13 | 211 | 22.5 | 30.6 | 0.00 | 0.00 | 0.00 | 82 | 1011.2 |
| 20260504210114 | 13 | 185 | 22.5 | 27.4 | 0.00 | 0.00 | 0.00 | 82 | 1011.1 |
| 20260504205612 | 13 | 203 | 20.9 | 29.0 | 0.00 | 0.00 | 0.00 | 82 | 1011.2 |
| 20260504205110 | 13 | 205 | 20.9 | 30.6 | 0.00 | 0.00 | 0.00 | 81 | 1011.3 |
| 20260504204608 | 13 | 183 | 24.1 | 27.4 | 0.00 | 0.00 | 0.00 | 81 | 1011.2 |
| 20260504204107 | 13 | 189 | 24.1 | 30.6 | 0.00 | 0.00 | 0.00 | 81 | 1011.3 |
| 20260504203605 | 13 | 175 | 19.3 | 29.0 | 0.00 | 0.00 | 0.00 | 81 | 1011.2 |
| 20260504203102 | 13 | 197 | 17.7 | 24.1 | 0.00 | 0.00 | 0.00 | 81 | 1011.1 |
| 20260504202557 | 13 | 157 | 19.3 | 27.4 | 0.00 | 0.00 | 0.00 | 80 | 1011.3 |
| 20260504202054 | 13 | 207 | 17.7 | 27.4 | 0.00 | 0.00 | 0.00 | 80 | 1011.1 |
| 20260504201551 | 13 | 198 | 19.3 | 27.4 | 0.00 | 0.00 | 0.00 | 80 | 1011.3 |
| 20260504201049 | 13 | 201 | 14.5 | 27.4 | 0.00 | 0.00 | 0.00 | 80 | 1011.4 |
| 20260504200545 | 13 | 185 | 22.5 | 30.6 | 0.00 | 0.00 | 0.00 | 80 | 1011.3 |
| 20260504200042 | 13 | 257 | 19.3 | 27.4 | 0.00 | 0.00 | 0.00 | 80 | 1011.3 |
| 20260504195538 | 13 | 207 | 17.7 | 25.7 | 0.00 | 0.00 | 0.00 | 80 | 1011.4 |
| 20260504195035 | 13 | 205 | 17.7 | 30.6 | 0.00 | 0.00 | 0.00 | 80 | 1011.6 |
| 20260504194531 | 13 | 172 | 19.3 | 24.1 | 0.00 | 0.00 | 0.00 | 80 | 1011.5 |
| 20260504194027 | 13 | 182 | 17.7 | 25.7 | 0.00 | 0.00 | 0.00 | 80 | 1011.6 |
| 20260504193524 | 13 | 215 | 19.3 | 30.6 | 0.00 | 0.00 | 0.00 | 80 | 1011.5 |
| 20260504193022 | 13 | 216 | 19.3 | 35.4 | 0.00 | 0.00 | 0.00 | 80 | 1011.7 |
| 20260504192520 | 13 | 134 | 24.1 | 35.4 | 0.00 | 0.00 | 0.00 | 80 | 1012.0 |
| 20260504192018 | 13 | 196 | 20.9 | 29.0 | 0.00 | 0.00 | 0.00 | 80 | 1011.7 |
| 20260504191516 | 13 | 199 | 20.9 | 27.4 | 0.00 | 0.00 | 0.00 | 80 | 1011.8 |
| 20260504191012 | 13 | 213 | 17.7 | 30.6 | 0.00 | 0.00 | 0.00 | 80 | 1012.1 |
| 20260504190508 | 13 | 209 | 12.9 | 25.7 | 0.00 | 0.00 | 0.00 | 80 | 1012.1 |
| 20260504190004 | 13 | 208 | 20.9 | 29.0 | 0.00 | 0.00 | 0.00 | 80 | 1012.2 |
| 20260504185501 | 13 | 188 | 16.1 | 24.1 | 0.00 | 0.00 | 0.00 | 80 | 1012.2 |
| 20260504184957 | 13 | 195 | 12.9 | 24.1 | 0.00 | 0.00 | 0.00 | 80 | 1012.2 |
| 20260504184453 | 13 | 220 | 17.7 | 20.9 | 0.00 | 0.00 | 0.00 | 79 | 1012.3 |
| 20260504183949 | 13 | 194 | 16.1 | 25.7 | 0.00 | 0.00 | 0.00 | 79 | 1012.5 |
| 20260504183446 | 13 | 168 | 12.9 | 25.7 | 0.00 | 0.00 | 0.00 | 80 | 1012.3 |
| 20260504182944 | 13 | 208 | 16.1 | 24.1 | 0.00 | 0.00 | 0.00 | 80 | 1012.6 |
| 20260504182440 | 13 | 204 | 16.1 | 29.0 | 0.00 | 0.00 | 0.00 | 80 | 1012.5 |
| 20260504181938 | 13 | 227 | 17.7 | 25.7 | 0.00 | 0.00 | 0.00 | 80 | 1012.5 |
| 20260504181435 | 13 | 194 | 17.7 | 29.0 | 0.00 | 0.00 | 0.00 | 80 | 1012.6 |
| 20260504180934 | 13 | 197 | 19.3 | 29.0 | 0.00 | 0.00 | 0.00 | 80 | 1012.6 |
| 20260504180432 | 13 | 195 | 14.5 | 24.1 | 0.00 | 0.00 | 0.00 | 80 | 1012.8 |
| 20260504175930 | 13 | 180 | 16.1 | 22.5 | 0.00 | 0.00 | 0.00 | 80 | 1012.8 |
| 20260504175427 | 13 | 199 | 16.1 | 22.5 | 0.00 | 0.00 | 0.00 | 80 | 1012.9 |
| 20260504174924 | 13 | 190 | 14.5 | 24.1 | 0.00 | 0.00 | 0.00 | 81 | 1012.9 |
| 20260504174421 | 13 | 200 | 19.3 | 24.1 | 0.00 | 0.00 | 0.00 | 80 | 1012.9 |
| 20260504173919 | 13 | 211 | 12.9 | 22.5 | 0.00 | 0.00 | 0.00 | 81 | 1012.9 |
| 20260504173416 | 13 | 199 | 16.1 | 24.1 | 0.00 | 0.00 | 0.00 | 80 | 1012.9 |
| 20260504172913 | 13 | 184 | 12.9 | 24.1 | 0.00 | 0.00 | 0.00 | 81 | 1013.1 |
| 20260504172409 | 13 | 216 | 9.7 | 20.9 | 0.00 | 0.00 | 0.00 | 81 | 1013.0 |
| 20260504171905 | 13 | 185 | 14.5 | 20.9 | 0.00 | 0.00 | 0.00 | 81 | 1013.0 |
| 20260504171403 | 13 | 197 | 16.1 | 20.9 | 0.00 | 0.00 | 0.00 | 81 | 1013.1 |
| 20260504170859 | 13 | 200 | 14.5 | 22.5 | 0.00 | 0.00 | 0.00 | 81 | 1013.1 |
| 20260504170356 | 13 | 192 | 14.5 | 22.5 | 0.00 | 0.00 | 0.00 | 81 | 1013.1 |
| 20260504160315 | 13 | 231 | 16.1 | 25.7 | 0.00 | 0.00 | 0.00 | 80 | 1013.8 |
| 20260504150739 | 13 | 207 | 6.4 | 12.9 | 0.00 | 0.00 | 0.00 | 79 | 1014.4 |
| 20260504150236 | 12 | 201 | 9.7 | 12.9 | 0.00 | 0.00 | 0.00 | 79 | 1014.7 |
| 20260504141206 | 12 | 218 | 11.3 | 12.9 | 0.00 | 0.00 | 0.00 | 77 | 1014.7 |
| 20260504140702 | 12 | 206 | 9.7 | 14.5 | 0.00 | 0.00 | 0.00 | 77 | 1014.8 |
| 20260504140158 | 12 | 212 | 11.3 | 16.1 | 0.00 | 0.00 | 0.00 | 76 | 1014.6 |
| 20260504130626 | 12 | 226 | 14.5 | 20.9 | 0.00 | 0.00 | 0.00 | 73 | 1015.3 |
| 20260504130123 | 12 | 247 | 12.9 | 16.1 | 0.00 | 0.00 | 0.00 | 73 | 1015.2 |
| 20260504110514 | 10 | 232 | 9.7 | 14.5 | 0.00 | 0.00 | 0.00 | 76 | 1015.5 |
| 20260504100436 | 9 | 222 | 11.3 | 22.5 | 0.00 | 0.00 | 0.00 | 79 | 1015.2 |
| 20260504081829 | 10 | 217 | 6.4 | 16.1 | 0.00 | 0.00 | 0.00 | 72 | 1014.6 |
| 20260504081326 | 10 | 216 | 9.7 | 17.7 | 0.00 | 0.00 | 0.00 | 70 | 1014.6 |
| 20260504080822 | 10 | 219 | 12.9 | 20.9 | 0.00 | 0.00 | 0.00 | 67 | 1014.6 |
| 20260504080320 | 10 | 235 | 9.7 | 24.1 | 0.00 | 0.00 | 0.00 | 66 | 1014.7 |
| 20260504070246 | 11 | 298 | 8.0 | 16.1 | 0.00 | 0.00 | 0.00 | 67 | 1014.5 |
| 20260504060207 | 10 | 219 | 9.7 | 14.5 | 0.00 | 0.00 | 0.00 | 76 | 1014.1 |
| 20260504050635 | 10 | 220 | 6.4 | 9.7 | 0.00 | 0.00 | 0.00 | 73 | 1014.1 |
| 20260504050132 | 10 | 215 | 4.8 | 11.3 | 0.00 | 0.00 | 0.00 | 72 | 1013.7 |
| 20260504045629 | 10 | 228 | 6.4 | 16.1 | 0.00 | 0.00 | 0.00 | 72 | 1013.8 |
| 20260504045129 | 10 | 217 | 4.8 | 12.9 | 0.00 | 0.00 | 0.00 | 72 | 1013.9 |
| 20260504044627 | 10 | 255 | 6.4 | 11.3 | 0.00 | 0.00 | 0.00 | 73 | 1013.7 |
| 20260504044124 | 10 | 223 | 4.8 | 12.9 | 0.00 | 0.00 | 0.00 | 74 | 1013.7 |
| 20260504043621 | 10 | 225 | 4.8 | 9.7 | 0.00 | 0.00 | 0.00 | 74 | 1013.7 |
| 20260504043118 | 10 | 219 | 4.8 | 9.7 | 0.00 | 0.00 | 0.00 | 74 | 1013.7 |
| 20260504042615 | 10 | 215 | 6.4 | 9.7 | 0.00 | 0.00 | 0.00 | 75 | 1013.6 |
| 20260504042112 | 10 | 259 | 6.4 | 9.7 | 0.00 | 0.00 | 0.00 | 75 | 1013.7 |
| 20260504041607 | 10 | 229 | 4.8 | 6.4 | 0.00 | 0.00 | 0.00 | 74 | 1013.7 |
| 20260504041104 | 10 | 220 | 6.4 | 11.3 | 0.00 | 0.00 | 0.00 | 74 | 1013.8 |
| 20260504040602 | 10 | 219 | 6.4 | 9.7 | 0.00 | 0.00 | 0.00 | 74 | 1013.7 |
| 20260504040058 | 10 | 216 | 4.8 | 9.7 | 0.00 | 0.00 | 0.00 | 74 | 1013.5 |
| 20260504035555 | 10 | 212 | 3.2 | 9.7 | 0.00 | 0.00 | 0.00 | 73 | 1013.6 |
| 20260504035051 | 10 | 223 | 4.8 | 6.4 | 0.00 | 0.00 | 0.00 | 73 | 1013.6 |
| 20260504034549 | 10 | 212 | 3.2 | 12.9 | 0.00 | 0.00 | 0.00 | 72 | 1013.4 |
| 20260504034046 | 10 | 215 | 3.2 | 6.4 | 0.00 | 0.00 | 0.00 | 72 | 1013.5 |
| 20260504033544 | 10 | 220 | 6.4 | 9.7 | 0.00 | 0.00 | 0.00 | 73 | 1013.5 |
| 20260504033041 | 10 | 213 | 3.2 | 6.4 | 0.00 | 0.00 | 0.00 | 74 | 1013.4 |
| 20260504032538 | 10 | 214 | 3.2 | 3.2 | 0.00 | 0.00 | 0.00 | 74 | 1013.4 |
| 20260504032034 | 10 | 213 | 3.2 | 12.9 | 0.00 | 0.00 | 0.00 | 75 | 1013.5 |
| 20260504031531 | 10 | 221 | 6.4 | 11.3 | 0.00 | 0.00 | 0.00 | 74 | 1013.5 |
| 20260504031027 | 10 | 211 | 6.4 | 9.7 | 0.00 | 0.00 | 0.00 | 73 | 1013.5 |
| 20260504030525 | 11 | 213 | 3.2 | 6.4 | 0.00 | 0.00 | 0.00 | 71 | 1013.4 |
| 20260504030021 | 11 | 222 | 4.8 | 9.7 | 0.00 | 0.00 | 0.00 | 69 | 1013.4 |
| 20260504025518 | 11 | 216 | 4.8 | 9.7 | 0.00 | 0.00 | 0.00 | 67 | 1013.5 |
| 20260504025015 | 11 | 216 | 8.0 | 12.9 | 0.00 | 0.00 | 0.00 | 66 | 1013.4 |
| 20260504024512 | 11 | 203 | 6.4 | 11.3 | 0.00 | 0.00 | 0.00 | 68 | 1013.5 |
| 20260504024009 | 11 | 216 | 4.8 | 9.7 | 0.00 | 0.00 | 0.00 | 68 | 1013.4 |
| 20260504023505 | 11 | 220 | 4.8 | 6.4 | 0.00 | 0.00 | 0.00 | 70 | 1013.4 |
| 20260504023001 | 11 | 217 | 6.4 | 9.7 | 0.00 | 0.00 | 0.00 | 71 | 1013.4 |
| 20260504022457 | 11 | 208 | 4.8 | 9.7 | 0.00 | 0.00 | 0.00 | 72 | 1013.4 |
| 20260504021954 | 11 | 217 | 12.9 | 16.1 | 0.00 | 0.00 | 0.00 | 72 | 1013.4 |
| 20260504021452 | 11 | 208 | 8.0 | 14.5 | 0.00 | 0.00 | 0.00 | 72 | 1013.4 |
| 20260504020949 | 11 | 222 | 11.3 | 16.1 | 0.00 | 0.00 | 0.00 | 70 | 1013.6 |
| 20260504020445 | 11 | 216 | 3.2 | 16.1 | 0.00 | 0.00 | 0.00 | 68 | 1013.4 |
| 20260504015942 | 11 | 215 | 8.0 | 14.5 | 0.00 | 0.00 | 0.00 | 65 | 1013.2 |
| 20260504015438 | 11 | 217 | 9.7 | 17.7 | 0.00 | 0.00 | 0.00 | 63 | 1013.2 |
| 20260504014934 | 11 | 215 | 3.2 | 9.7 | 0.00 | 0.00 | 0.00 | 62 | 1013.3 |
| 20260504014430 | 11 | 213 | 3.2 | 9.7 | 0.00 | 0.00 | 0.00 | 64 | 1013.2 |
| 20260504013927 | 11 | 219 | 4.8 | 12.9 | 0.00 | 0.00 | 0.00 | 67 | 1013.1 |
| 20260504013426 | 12 | 219 | 6.4 | 11.3 | 0.00 | 0.00 | 0.00 | 67 | 1013.2 |
| 20260504012927 | 12 | 224 | 8.0 | 12.9 | 0.00 | 0.00 | 0.00 | 67 | 1012.9 |
| 20260504012425 | 12 | 220 | 8.0 | 11.3 | 0.00 | 0.00 | 0.00 | 67 | 1013.0 |
| 20260504011922 | 12 | 215 | 6.4 | 11.3 | 0.00 | 0.00 | 0.00 | 64 | 1012.9 |
| 20260504011419 | 12 | 216 | 6.4 | 12.9 | 0.00 | 0.00 | 0.00 | 61 | 1013.0 |
| 20260504010915 | 12 | 216 | 9.7 | 11.3 | 0.00 | 0.00 | 0.00 | 61 | 1012.8 |
| 20260504010411 | 12 | 224 | 9.7 | 14.5 | 0.00 | 0.00 | 0.00 | 59 | 1012.9 |
| 20260504005907 | 12 | 232 | 6.4 | 12.9 | 0.00 | 0.00 | 0.00 | 65 | 1012.9 |
| 20260504005404 | 12 | 229 | 4.8 | 11.3 | 0.00 | 0.00 | 0.00 | 62 | 1012.7 |
| 20260504004901 | 12 | 233 | 6.4 | 9.7 | 0.00 | 0.00 | 0.00 | 58 | 1012.7 |
| 20260504004400 | 13 | 217 | 8.0 | 12.9 | 0.00 | 0.00 | 0.00 | 52 | 1012.7 |
| 20260504003855 | 12 | 222 | 9.7 | 14.5 | 0.00 | 0.00 | 0.00 | 52 | 1012.4 |
| 20260504003352 | 12 | 229 | 8.0 | 11.3 | 0.00 | 0.00 | 0.00 | 49 | 1012.5 |
| 20260504002849 | 13 | 233 | 9.7 | 11.3 | 0.00 | 0.00 | 0.00 | 50 | 1012.4 |
| 20260504002346 | 13 | 213 | 6.4 | 14.5 | 0.00 | 0.00 | 0.00 | 48 | 1012.4 |
| 20260504001843 | 13 | 229 | 4.8 | 9.7 | 0.00 | 0.00 | 0.00 | 50 | 1012.3 |
| 20260504001340 | 13 | 213 | 8.0 | 14.5 | 0.00 | 0.00 | 0.00 | 42 | 1012.2 |
| 20260504000837 | 14 | 211 | 1.6 | 4.8 | 0.00 | 0.00 | 0.00 | 32 | 1012.0 |
| 20260504000334 | 14 | 264 | 4.8 | 9.7 | 0.00 | 0.00 | 0.00 | 32 | 1012.1 |
| 20260503235832 | 15 | 263 | 3.2 | 14.5 | 0.00 | 0.00 | 0.00 | 33 | 1012.0 |
| 20260503235329 | 15 | 241 | 4.8 | 4.8 | 0.00 | 0.00 | 0.00 | 33 | 1011.9 |
| 20260503234827 | 15 | 242 | 6.4 | 6.4 | 0.00 | 0.00 | 0.00 | 33 | 1011.8 |
| 20260503234324 | 15 | 230 | 4.8 | 11.3 | 0.00 | 0.00 | 0.00 | 33 | 1011.8 |
| 20260503233822 | 15 | 217 | 9.7 | 14.5 | 0.00 | 0.00 | 0.00 | 32 | 1011.8 |
| 20260503233317 | 15 | 356 | 9.7 | 14.5 | 0.00 | 0.00 | 0.00 | 32 | 1011.7 |
| 20260503232814 | 15 | 234 | 3.2 | 12.9 | 0.00 | 0.00 | 0.00 | 30 | 1011.5 |
| 20260503232312 | 15 | 232 | 4.8 | 14.5 | 0.00 | 0.00 | 0.00 | 30 | 1011.7 |
| 20260503231810 | 15 | 280 | 12.9 | 20.9 | 0.00 | 0.00 | 0.00 | 29 | 1011.5 |
| 20260503231306 | 15 | 202 | 11.3 | 22.5 | 0.00 | 0.00 | 0.00 | 29 | 1011.4 |
| 20260503230802 | 15 | 248 | 9.7 | 16.1 | 0.00 | 0.00 | 0.00 | 28 | 1011.4 |
| 20260503230300 | 15 | 266 | 12.9 | 24.1 | 0.00 | 0.00 | 0.00 | 29 | 1011.5 |
| 20260503225757 | 15 | 286 | 11.3 | 24.1 | 0.00 | 0.00 | 0.00 | 29 | 1011.4 |
| 20260503225252 | 15 | 292 | 12.9 | 25.7 | 0.00 | 0.00 | 0.00 | 28 | 1011.4 |
| 20260503224749 | 15 | 314 | 16.1 | 27.4 | 0.00 | 0.00 | 0.00 | 28 | 1011.3 |
| 20260503224247 | 16 | 314 | 8.0 | 11.3 | 0.00 | 0.00 | 0.00 | 28 | 1011.3 |
| 20260503223744 | 16 | 245 | 9.7 | 27.4 | 0.00 | 0.00 | 0.00 | 28 | 1011.4 |
| 20260503223242 | 16 | 246 | 14.5 | 20.9 | 0.00 | 0.00 | 0.00 | 27 | 1011.3 |
| 20260503222738 | 15 | 288 | 12.9 | 27.4 | 0.00 | 0.00 | 0.00 | 28 | 1011.0 |
| 20260503222236 | 15 | 343 | 12.9 | 16.1 | 0.00 | 0.00 | 0.00 | 29 | 1011.1 |
| 20260503221734 | 16 | 254 | 11.3 | 20.9 | 0.00 | 0.00 | 0.00 | 28 | 1011.2 |
| 20260503221231 | 15 | 213 | 11.3 | 29.0 | 0.00 | 0.00 | 0.00 | 28 | 1011.2 |
| 20260503220728 | 15 | 321 | 14.5 | 25.7 | 0.00 | 0.00 | 0.00 | 28 | 1011.3 |
| 20260503220225 | 15 | 268 | 12.9 | 27.4 | 0.00 | 0.00 | 0.00 | 28 | 1011.2 |
| 20260503215721 | 15 | 221 | 14.5 | 25.7 | 0.00 | 0.00 | 0.00 | 28 | 1011.1 |
| 20260503215219 | 15 | 328 | 17.7 | 25.7 | 0.00 | 0.00 | 0.00 | 29 | 1011.3 |
| 20260503214717 | 15 | 313 | 16.1 | 29.0 | 0.00 | 0.00 | 0.00 | 29 | 1011.3 |
| 20260503214213 | 15 | 267 | 16.1 | 30.6 | 0.00 | 0.00 | 0.00 | 29 | 1011.2 |
| 20260503213711 | 15 | 228 | 8.0 | 24.1 | 0.00 | 0.00 | 0.00 | 29 | 1011.4 |
| 20260503213208 | 15 | 330 | 17.7 | 30.6 | 0.00 | 0.00 | 0.00 | 29 | 1011.3 |